RYR6RR EGSS-LEAM

Flight info

Callsign RYR6RR
Flight time 2h 43m
Altitude 35000
Route NUGBO M183 SILVA Q41 COWLY UT71 VAPID UN859 SOPIL DCT BALAN DCT LMG DCT PIMQO DCT AGN DCT ANETO N860 DOSEK
Aircraft B738/M-SDE3FGILRWY/SB1

Departure

Time 2026-04-17 08:32
Airport London Stansted Airport (EGSS)

Arrival

Time 2026-04-17 11:15
Airport Almería Airport (LEAM)
Time Latitude Longitude Altitude Speed Heading
2026-04-17 08:09 51.89055 0.25658 354 ft 0 kts 43°
2026-04-17 08:10 51.89058 0.25661 348 ft 0 kts 43°
2026-04-17 08:25 51.89044 0.25640 354 ft 4 kts 43°
2026-04-17 08:25 51.89025 0.25616 348 ft 4 kts
2026-04-17 08:25 51.89005 0.25627 348 ft 2 kts 313°
2026-04-17 08:25 51.88990 0.25652 348 ft 2 kts 313°
2026-04-17 08:26 51.88989 0.25654 348 ft 1 kts 313°
2026-04-17 08:28 51.88994 0.25646 348 ft 2 kts 313°
2026-04-17 08:28 51.89012 0.25615 348 ft 5 kts 313°
2026-04-17 08:28 51.89043 0.25561 348 ft 8 kts 313°
2026-04-17 08:28 51.89087 0.25484 357 ft 10 kts 313°
2026-04-17 08:29 51.89142 0.25390 350 ft 12 kts 313°
2026-04-17 08:29 51.89211 0.25338 353 ft 12 kts 28°
2026-04-17 08:29 51.89274 0.25425 355 ft 12 kts 43°
2026-04-17 08:29 51.89332 0.25512 349 ft 11 kts 43°
2026-04-17 08:30 51.89402 0.25506 353 ft 11 kts 317°
2026-04-17 08:30 51.89412 0.25394 354 ft 11 kts 259°
2026-04-17 08:30 51.89448 0.25291 352 ft 11 kts 313°
2026-04-17 08:30 51.89496 0.25171 345 ft 15 kts 282°
2026-04-17 08:31 51.89493 0.25004 335 ft 11 kts 268°
2026-04-17 08:31 51.89444 0.24895 333 ft 16 kts 223°
2026-04-17 08:31 51.89235 0.24582 335 ft 74 kts 223°
2026-04-17 08:31 51.88689 0.23762 333 ft 135 kts 223°
2026-04-17 08:32 51.87907 0.22582 543 ft 164 kts 223°
2026-04-17 08:32 51.87063 0.21308 1211 ft 169 kts 222°
2026-04-17 08:32 51.86199 0.20006 1923 ft 170 kts 222°
2026-04-17 08:32 51.85303 0.18657 2448 ft 190 kts 221°
2026-04-17 08:33 51.84285 0.17130 2776 ft 211 kts 221°
2026-04-17 08:33 51.83285 0.15272 3175 ft 228 kts 243°
2026-04-17 08:33 51.83099 0.12631 3530 ft 256 kts 281°
2026-04-17 08:33 51.84084 0.10120 4236 ft 273 kts 319°
2026-04-17 08:34 51.85826 0.08875 5095 ft 280 kts 346°
2026-04-17 08:34 51.87757 0.08554 5888 ft 285 kts 357°
2026-04-17 08:34 51.89786 0.08371 6666 ft 291 kts 353°
2026-04-17 08:34 51.91724 0.07525 7409 ft 289 kts 325°
2026-04-17 08:35 51.93100 0.05248 8229 ft 282 kts 295°
2026-04-17 08:35 51.93713 0.02285 8980 ft 278 kts 272°
2026-04-17 08:35 51.93617 -0.00812 9705 ft 276 kts 252°
2026-04-17 08:35 51.92932 -0.03673 10533 ft 272 kts 243°
2026-04-17 08:36 51.92085 -0.06538 10817 ft 294 kts 243°
2026-04-17 08:36 51.91148 -0.09596 11187 ft 309 kts 242°
2026-04-17 08:36 51.90182 -0.12751 11852 ft 314 kts 243°
2026-04-17 08:36 51.89211 -0.15939 12609 ft 317 kts 243°
2026-04-17 08:37 51.88189 -0.19060 13347 ft 320 kts 235°
2026-04-17 08:37 51.86562 -0.21585 14070 ft 325 kts 213°
2026-04-17 08:37 51.84529 -0.23120 14842 ft 329 kts 202°
2026-04-17 08:37 51.82349 -0.24343 15578 ft 334 kts 201°
2026-04-17 08:38 51.80128 -0.25515 16303 ft 337 kts 200°
2026-04-17 08:38 51.77886 -0.26685 17024 ft 340 kts 200°
2026-04-17 08:38 51.75621 -0.27874 17706 ft 344 kts 201°
2026-04-17 08:38 51.73335 -0.29084 18376 ft 348 kts 201°
2026-04-17 08:39 51.71024 -0.30316 19041 ft 351 kts 201°
2026-04-17 08:39 51.68701 -0.31562 19700 ft 354 kts 201°
2026-04-17 08:39 51.66361 -0.32820 20369 ft 355 kts 201°
2026-04-17 08:39 51.64008 -0.34086 21009 ft 358 kts 201°
2026-04-17 08:40 51.61641 -0.35362 21617 ft 360 kts 202°
2026-04-17 08:40 51.59251 -0.36649 22190 ft 363 kts 202°
2026-04-17 08:40 51.56848 -0.37943 22759 ft 366 kts 202°
2026-04-17 08:40 51.54427 -0.39244 23316 ft 368 kts 202°
2026-04-17 08:41 51.51985 -0.40556 23856 ft 371 kts 202°
2026-04-17 08:41 51.49530 -0.41874 24357 ft 373 kts 202°
2026-04-17 08:41 51.47056 -0.43200 24845 ft 376 kts 202°
2026-04-17 08:41 51.44572 -0.44530 25326 ft 378 kts 202°
2026-04-17 08:42 51.42066 -0.45869 25802 ft 381 kts 202°
2026-04-17 08:42 51.39542 -0.47216 26258 ft 383 kts 202°
2026-04-17 08:42 51.37004 -0.48569 26677 ft 386 kts 202°
2026-04-17 08:42 51.34444 -0.49932 27103 ft 389 kts 202°
2026-04-17 08:43 51.31874 -0.51299 27538 ft 391 kts 203°
2026-04-17 08:43 51.29287 -0.52674 27919 ft 393 kts 203°
2026-04-17 08:43 51.26679 -0.54057 28309 ft 395 kts 203°
2026-04-17 08:43 51.24064 -0.55443 28675 ft 398 kts 203°
2026-04-17 08:44 51.21426 -0.56840 29065 ft 400 kts 203°
2026-04-17 08:44 51.18780 -0.58241 29420 ft 402 kts 203°
2026-04-17 08:44 51.16114 -0.59643 29766 ft 405 kts 202°
2026-04-17 08:44 51.13316 -0.60500 30019 ft 418 kts 188°
2026-04-17 08:45 51.10370 -0.60229 30336 ft 430 kts 177°
2026-04-17 08:45 51.08423 -0.59551 30559 ft 437 kts 169°
2026-04-17 08:45 51.04570 -0.57268 30973 ft 444 kts 165°
2026-04-17 08:45 51.02665 -0.56062 31173 ft 446 kts 165°
2026-04-17 08:46 50.99786 -0.54227 31530 ft 446 kts 165°
2026-04-17 08:46 50.96916 -0.52407 31977 ft 443 kts 165°
2026-04-17 08:46 50.94060 -0.50614 32396 ft 441 kts 165°
2026-04-17 08:46 50.91199 -0.48840 32706 ft 442 kts 165°
2026-04-17 08:47 50.88335 -0.47079 33039 ft 441 kts 165°
2026-04-17 08:47 50.85474 -0.45328 33427 ft 440 kts 166°
2026-04-17 08:47 50.82624 -0.43588 33794 ft 438 kts 166°
2026-04-17 08:47 50.79781 -0.41855 34074 ft 439 kts 166°
2026-04-17 08:48 50.76922 -0.40116 34331 ft 440 kts 166°
2026-04-17 08:48 50.74066 -0.38381 34632 ft 439 kts 166°
2026-04-17 08:48 50.71219 -0.36651 34960 ft 438 kts 166°
2026-04-17 08:48 50.68373 -0.34925 35219 ft 439 kts 166°
2026-04-17 08:49 50.65521 -0.33197 35475 ft 439 kts 166°
2026-04-17 08:49 50.62674 -0.31475 35764 ft 438 kts 166°
2026-04-17 08:49 50.59826 -0.29755 36018 ft 438 kts 166°
2026-04-17 08:49 50.56974 -0.28035 36249 ft 439 kts 166°
2026-04-17 08:50 50.54120 -0.26316 36491 ft 439 kts 166°
2026-04-17 08:50 50.51268 -0.24600 36693 ft 440 kts 166°
2026-04-17 08:50 50.48415 -0.22883 37025 ft 437 kts 166°
2026-04-17 08:50 50.45579 -0.21180 37179 ft 438 kts 166°
2026-04-17 08:51 50.42728 -0.19472 37195 ft 438 kts 166°
2026-04-17 08:51 50.37076 -0.16083 37186 ft 431 kts 166°
2026-04-17 08:52 50.31496 -0.12752 37203 ft 428 kts 166°
2026-04-17 08:52 50.25924 -0.09438 37205 ft 428 kts 166°
2026-04-17 08:53 50.20357 -0.06133 37204 ft 428 kts 166°
2026-04-17 08:53 50.14790 -0.02832 37207 ft 428 kts 166°
2026-04-17 08:54 50.09203 0.00407 37211 ft 426 kts 169°
2026-04-17 08:54 50.03484 0.02741 37209 ft 427 kts 172°
2026-04-17 08:55 49.97643 0.04904 37235 ft 436 kts 172°
2026-04-17 08:55 49.91729 0.07168 37226 ft 439 kts 171°
2026-04-17 08:56 49.85790 0.09487 37232 ft 441 kts 171°
2026-04-17 08:56 49.79876 0.11804 37226 ft 433 kts 171°
2026-04-17 08:57 49.74066 0.14064 37237 ft 430 kts 171°
2026-04-17 08:57 49.68249 0.16319 37245 ft 431 kts 171°
2026-04-17 08:58 49.62442 0.18647 37244 ft 432 kts 171°
2026-04-17 08:58 49.56613 0.21024 37233 ft 433 kts 170°
2026-04-17 08:59 49.50813 0.23376 37246 ft 434 kts 170°
2026-04-17 08:59 49.44967 0.25733 37239 ft 435 kts 170°
2026-04-17 09:00 49.39117 0.28085 37238 ft 435 kts 170°
2026-04-17 09:00 49.33256 0.30436 37238 ft 435 kts 170°
2026-04-17 09:01 49.27397 0.32823 37245 ft 436 kts 169°
2026-04-17 09:01 49.21553 0.35294 37236 ft 435 kts 169°
2026-04-17 09:02 49.15709 0.37763 37241 ft 435 kts 169°
2026-04-17 09:02 49.09875 0.40210 37237 ft 435 kts 169°
2026-04-17 09:03 49.04026 0.42655 37244 ft 435 kts 169°
2026-04-17 09:03 48.98181 0.45089 37235 ft 435 kts 169°
2026-04-17 09:04 48.92342 0.47516 37239 ft 435 kts 169°
2026-04-17 09:04 48.86506 0.49936 37240 ft 435 kts 169°
2026-04-17 09:05 48.80680 0.52348 37240 ft 434 kts 169°
2026-04-17 09:05 48.74849 0.54700 37245 ft 433 kts 170°
2026-04-17 09:06 48.69010 0.56963 37239 ft 433 kts 170°
2026-04-17 09:06 48.63176 0.59227 37245 ft 433 kts 170°
2026-04-17 09:07 48.57318 0.61508 37237 ft 433 kts 170°
2026-04-17 09:07 48.51481 0.63781 37238 ft 433 kts 169°
2026-04-17 09:08 48.45667 0.66132 37244 ft 433 kts 169°
2026-04-17 09:08 48.39855 0.68509 37240 ft 433 kts 169°
2026-04-17 09:09 48.34076 0.70858 37244 ft 433 kts 169°
2026-04-17 09:09 48.28256 0.73205 37238 ft 433 kts 169°
2026-04-17 09:10 48.19515 0.76692 37236 ft 433 kts 169°
2026-04-17 09:10 48.13673 0.78986 37231 ft 434 kts 169°
2026-04-17 09:11 48.07836 0.81270 37246 ft 434 kts 169°
2026-04-17 09:11 48.01992 0.83560 37242 ft 434 kts 169°
2026-04-17 09:12 47.96148 0.85847 37229 ft 434 kts 169°
2026-04-17 09:12 47.90296 0.88132 37245 ft 435 kts 169°
2026-04-17 09:13 47.84446 0.90408 37237 ft 435 kts 169°
2026-04-17 09:13 47.78583 0.92681 37244 ft 436 kts 169°
2026-04-17 09:14 47.72711 0.94951 37239 ft 436 kts 169°
2026-04-17 09:14 47.66835 0.97218 37241 ft 436 kts 169°
2026-04-17 09:15 47.60961 0.99478 37240 ft 436 kts 169°
2026-04-17 09:15 47.55080 1.01737 37242 ft 437 kts 169°
2026-04-17 09:16 47.49195 1.03992 37244 ft 437 kts 169°
2026-04-17 09:16 47.43340 1.06122 37236 ft 435 kts 174°
2026-04-17 09:17 47.37366 1.06437 37247 ft 429 kts 185°
2026-04-17 09:17 47.31403 1.06197 37241 ft 429 kts 185°
2026-04-17 09:18 47.25440 1.06009 37242 ft 429 kts 185°
2026-04-17 09:18 47.19471 1.05870 37241 ft 429 kts 185°
2026-04-17 09:19 47.13501 1.05740 37238 ft 429 kts 184°
2026-04-17 09:19 47.07536 1.05610 37243 ft 429 kts 185°
2026-04-17 09:20 47.01564 1.05473 37235 ft 429 kts 185°
2026-04-17 09:20 46.95599 1.05228 37236 ft 429 kts 185°
2026-04-17 09:21 46.89635 1.04948 37230 ft 429 kts 185°
2026-04-17 09:21 46.83677 1.04681 37227 ft 428 kts 185°
2026-04-17 09:22 46.77724 1.04417 37230 ft 428 kts 185°
2026-04-17 09:22 46.71770 1.04164 37227 ft 428 kts 185°
2026-04-17 09:23 46.65813 1.03910 37230 ft 428 kts 185°
2026-04-17 09:23 46.59859 1.03654 37225 ft 428 kts 185°
2026-04-17 09:24 46.53903 1.03399 37223 ft 428 kts 185°
2026-04-17 09:24 46.47945 1.03208 37219 ft 429 kts 184°
2026-04-17 09:25 46.41974 1.03166 37222 ft 429 kts 184°
2026-04-17 09:25 46.36009 1.03133 37223 ft 429 kts 184°
2026-04-17 09:26 46.30049 1.03082 37220 ft 428 kts 184°
2026-04-17 09:26 46.24087 1.03024 37217 ft 428 kts 184°
2026-04-17 09:27 46.18125 1.02964 37211 ft 429 kts 184°
2026-04-17 09:27 46.12162 1.02904 37216 ft 429 kts 184°
2026-04-17 09:28 46.06200 1.02846 37213 ft 429 kts 184°
2026-04-17 09:28 46.00237 1.02786 37213 ft 429 kts 184°
2026-04-17 09:29 45.94309 1.02726 37208 ft 429 kts 184°
2026-04-17 09:29 45.88335 1.02668 37210 ft 429 kts 184°
2026-04-17 09:30 45.82365 1.02618 37210 ft 430 kts 182°
2026-04-17 09:30 45.76394 1.03747 37217 ft 435 kts 173°
2026-04-17 09:31 45.71406 1.05116 37216 ft 436 kts 173°
2026-04-17 09:31 45.65449 1.06721 37211 ft 436 kts 173°
2026-04-17 09:32 45.59532 1.08255 37209 ft 436 kts 173°
2026-04-17 09:32 45.53525 1.09786 37210 ft 436 kts 173°
2026-04-17 09:33 45.47581 1.11295 37213 ft 436 kts 174°
2026-04-17 09:33 45.41604 1.12811 37213 ft 436 kts 174°
2026-04-17 09:34 45.35623 1.14326 37212 ft 437 kts 174°
2026-04-17 09:34 45.29648 1.15836 37215 ft 437 kts 174°
2026-04-17 09:35 45.23710 1.17334 37210 ft 437 kts 174°
2026-04-17 09:35 45.17721 1.18788 37205 ft 435 kts 178°
2026-04-17 09:36 45.11765 1.18399 37213 ft 425 kts 194°
2026-04-17 09:36 45.05949 1.16842 37208 ft 426 kts 195°
2026-04-17 09:37 45.00124 1.15280 37211 ft 427 kts 194°
2026-04-17 09:37 44.94275 1.13759 37210 ft 427 kts 194°
2026-04-17 09:38 44.88428 1.12264 37214 ft 427 kts 194°
2026-04-17 09:38 44.82569 1.10771 37208 ft 428 kts 194°
2026-04-17 09:39 44.76713 1.09283 37214 ft 428 kts 194°
2026-04-17 09:39 44.70856 1.07798 37212 ft 428 kts 194°
2026-04-17 09:40 44.64990 1.06314 37211 ft 428 kts 194°
2026-04-17 09:40 44.59123 1.04832 37215 ft 429 kts 194°
2026-04-17 09:41 44.53250 1.03352 37209 ft 429 kts 194°
2026-04-17 09:41 44.47374 1.01874 37216 ft 429 kts 194°
2026-04-17 09:42 44.41493 1.00398 37213 ft 429 kts 194°
2026-04-17 09:42 44.35612 0.98923 37210 ft 430 kts 194°
2026-04-17 09:43 44.29726 0.97452 37213 ft 430 kts 194°
2026-04-17 09:43 44.23840 0.95983 37215 ft 430 kts 194°
2026-04-17 09:44 44.17949 0.94516 37209 ft 430 kts 194°
2026-04-17 09:44 44.12068 0.93056 37211 ft 429 kts 194°
2026-04-17 09:45 44.06233 0.91610 37212 ft 429 kts 194°
2026-04-17 09:45 44.00363 0.90155 37214 ft 428 kts 194°
2026-04-17 09:46 43.94497 0.88705 37205 ft 428 kts 194°
2026-04-17 09:46 43.88637 0.87260 37217 ft 428 kts 195°
2026-04-17 09:47 43.82781 0.85724 37213 ft 428 kts 195°
2026-04-17 09:47 43.76928 0.84135 37211 ft 428 kts 195°
2026-04-17 09:48 43.71075 0.82554 37215 ft 429 kts 195°
2026-04-17 09:48 43.65213 0.80984 37213 ft 429 kts 195°
2026-04-17 09:49 43.59341 0.79419 37215 ft 430 kts 195°
2026-04-17 09:49 43.53463 0.77856 37212 ft 430 kts 195°
2026-04-17 09:50 43.47578 0.76294 37212 ft 431 kts 195°
2026-04-17 09:50 43.41680 0.74730 37213 ft 432 kts 195°
2026-04-17 09:51 43.35779 0.73172 37212 ft 432 kts 195°
2026-04-17 09:51 43.29886 0.71618 37210 ft 432 kts 195°
2026-04-17 09:52 43.23986 0.70062 37213 ft 431 kts 195°
2026-04-17 09:52 43.18091 0.68510 37211 ft 432 kts 195°
2026-04-17 09:53 43.12193 0.66963 37211 ft 432 kts 195°
2026-04-17 09:53 43.06292 0.65419 37213 ft 431 kts 195°
2026-04-17 09:54 43.00391 0.63878 37205 ft 431 kts 194°
2026-04-17 09:54 42.94497 0.62341 37207 ft 431 kts 194°
2026-04-17 09:55 42.88606 0.60807 37209 ft 430 kts 194°
2026-04-17 09:55 42.82738 0.59283 37214 ft 429 kts 194°
2026-04-17 09:56 42.76879 0.57763 37211 ft 429 kts 194°
2026-04-17 09:56 42.71012 0.56243 37219 ft 430 kts 194°
2026-04-17 09:57 42.65131 0.54729 37220 ft 430 kts 194°
2026-04-17 09:57 42.59237 0.53221 37219 ft 432 kts 194°
2026-04-17 09:58 42.53318 0.51709 37208 ft 434 kts 194°
2026-04-17 09:58 42.47422 0.50204 37201 ft 434 kts 194°
2026-04-17 09:59 42.41441 0.48681 37209 ft 434 kts 194°
2026-04-17 09:59 42.35541 0.47181 37197 ft 434 kts 194°
2026-04-17 10:00 42.29605 0.45665 37203 ft 434 kts 194°
2026-04-17 10:00 42.23687 0.44153 37210 ft 432 kts 194°
2026-04-17 10:01 42.17779 0.42646 37205 ft 431 kts 194°
2026-04-17 10:01 42.11888 0.41147 37201 ft 431 kts 194°
2026-04-17 10:02 42.06003 0.39653 37200 ft 430 kts 194°
2026-04-17 10:02 42.00136 0.38167 37197 ft 429 kts 194°
2026-04-17 10:03 41.94269 0.36686 37200 ft 429 kts 193°
2026-04-17 10:03 41.88395 0.35209 37185 ft 429 kts 193°
2026-04-17 10:04 41.82532 0.33738 37201 ft 430 kts 193°
2026-04-17 10:04 41.76653 0.32263 37180 ft 430 kts 193°
2026-04-17 10:05 41.70765 0.30797 37186 ft 430 kts 193°
2026-04-17 10:05 41.64873 0.29339 37187 ft 431 kts 193°
2026-04-17 10:06 41.58972 0.27880 37187 ft 432 kts 193°
2026-04-17 10:06 41.53063 0.26421 37181 ft 432 kts 193°
2026-04-17 10:07 41.47149 0.24963 37179 ft 433 kts 193°
2026-04-17 10:07 41.41220 0.23501 37184 ft 434 kts 193°
2026-04-17 10:08 41.35278 0.22043 37195 ft 434 kts 193°
2026-04-17 10:08 41.29338 0.20549 37193 ft 435 kts 193°
2026-04-17 10:09 41.23393 0.19052 37196 ft 435 kts 193°
2026-04-17 10:09 41.17438 0.17591 37197 ft 436 kts 193°
2026-04-17 10:10 41.11485 0.16020 37183 ft 435 kts 198°
2026-04-17 10:11 41.02807 0.12485 37196 ft 436 kts 200°
2026-04-17 10:11 40.97012 0.10108 37186 ft 437 kts 199°
2026-04-17 10:12 40.91229 0.07801 37196 ft 437 kts 199°
2026-04-17 10:12 40.85407 0.05484 37196 ft 437 kts 199°
2026-04-17 10:13 40.79579 0.03140 37198 ft 438 kts 199°
2026-04-17 10:13 40.73746 0.00791 37178 ft 439 kts 199°
2026-04-17 10:14 40.67910 -0.01552 37195 ft 439 kts 199°
2026-04-17 10:14 40.62120 -0.03870 37178 ft 425 kts 199°
2026-04-17 10:15 40.56545 -0.06099 37181 ft 416 kts 199°
2026-04-17 10:15 40.51002 -0.08300 37187 ft 416 kts 199°
2026-04-17 10:16 40.45453 -0.10488 37185 ft 417 kts 199°
2026-04-17 10:16 40.40830 -0.12311 37196 ft 418 kts 199°
2026-04-17 10:17 40.35246 -0.14509 37204 ft 419 kts 199°
2026-04-17 10:17 40.29647 -0.16710 37205 ft 421 kts 199°
2026-04-17 10:18 40.24023 -0.18919 37202 ft 422 kts 199°
2026-04-17 10:18 40.18391 -0.21146 37201 ft 423 kts 199°
2026-04-17 10:19 40.12746 -0.23379 37204 ft 425 kts 199°
2026-04-17 10:19 40.07083 -0.25612 37203 ft 425 kts 199°
2026-04-17 10:20 40.01410 -0.27845 37179 ft 426 kts 199°
2026-04-17 10:20 39.95724 -0.30054 37175 ft 427 kts 198°
2026-04-17 10:21 39.90023 -0.32243 37197 ft 427 kts 198°
2026-04-17 10:21 39.84321 -0.34452 37194 ft 428 kts 198°
2026-04-17 10:22 39.78614 -0.36677 37176 ft 429 kts 198°
2026-04-17 10:22 39.72896 -0.38901 37185 ft 429 kts 198°
2026-04-17 10:23 39.67172 -0.41123 37194 ft 430 kts 198°
2026-04-17 10:23 39.61440 -0.43340 37178 ft 430 kts 198°
2026-04-17 10:24 39.55705 -0.45558 37183 ft 430 kts 198°
2026-04-17 10:24 39.49971 -0.47773 37181 ft 430 kts 199°
2026-04-17 10:25 39.44556 -0.50952 37197 ft 427 kts 210°
2026-04-17 10:25 39.39360 -0.54658 37193 ft 427 kts 210°
2026-04-17 10:26 39.34149 -0.58342 37187 ft 427 kts 210°
2026-04-17 10:26 39.28925 -0.61982 37184 ft 427 kts 210°
2026-04-17 10:27 39.23693 -0.65606 37181 ft 426 kts 210°
2026-04-17 10:27 39.18469 -0.69217 37198 ft 426 kts 210°
2026-04-17 10:28 39.13239 -0.72829 37194 ft 426 kts 210°
2026-04-17 10:28 39.09803 -0.75199 37198 ft 426 kts 210°
2026-04-17 10:46 39.05825 -0.77938 37181 ft 427 kts 210°
2026-04-17 10:47 39.00593 -0.81539 37196 ft 426 kts 210°
2026-04-17 10:47 38.95398 -0.85110 37186 ft 426 kts 210°
2026-04-17 10:47 38.92773 -0.86913 36914 ft 429 kts 210°
2026-04-17 10:48 38.90159 -0.88706 36637 ft 422 kts 210°
2026-04-17 10:48 38.87582 -0.90471 36258 ft 418 kts 209°
2026-04-17 10:48 38.85025 -0.92223 35885 ft 415 kts 209°
2026-04-17 10:48 38.82482 -0.93964 35493 ft 413 kts 209°
2026-04-17 10:49 38.79957 -0.95692 35123 ft 410 kts 209°
2026-04-17 10:49 38.77448 -0.97407 34746 ft 408 kts 209°
2026-04-17 10:49 38.74953 -0.99113 34369 ft 405 kts 209°
2026-04-17 10:49 38.72473 -1.00804 33969 ft 403 kts 208°
2026-04-17 10:50 38.69997 -1.02490 33570 ft 405 kts 208°
2026-04-17 10:50 38.67459 -1.04218 33216 ft 423 kts 208°
2026-04-17 10:50 38.64803 -1.06026 32792 ft 442 kts 208°
2026-04-17 10:50 38.62080 -1.07877 32367 ft 443 kts 208°
2026-04-17 10:51 38.59367 -1.09720 31930 ft 441 kts 208°
2026-04-17 10:51 38.56668 -1.11552 31527 ft 438 kts 208°
2026-04-17 10:51 38.53982 -1.13373 31117 ft 436 kts 208°
2026-04-17 10:51 38.51311 -1.15184 30709 ft 434 kts 208°
2026-04-17 10:52 38.48649 -1.16987 30311 ft 432 kts 208°
2026-04-17 10:52 38.46002 -1.18779 29904 ft 430 kts 208°
2026-04-17 10:52 38.43360 -1.20565 29499 ft 429 kts 208°
2026-04-17 10:52 38.40723 -1.22346 29070 ft 428 kts 208°
2026-04-17 10:53 38.38093 -1.24121 28652 ft 427 kts 208°
2026-04-17 10:53 38.35479 -1.25881 28240 ft 424 kts 208°
2026-04-17 10:53 38.32872 -1.27637 27801 ft 423 kts 208°
2026-04-17 10:53 38.30280 -1.29382 27389 ft 420 kts 208°
2026-04-17 10:54 38.27707 -1.31114 26972 ft 417 kts 208°
2026-04-17 10:54 38.25149 -1.32835 26568 ft 414 kts 208°
2026-04-17 10:54 38.22608 -1.34542 26132 ft 412 kts 208°
2026-04-17 10:54 38.20085 -1.36236 25732 ft 408 kts 208°
2026-04-17 10:55 38.17582 -1.37915 25327 ft 406 kts 208°
2026-04-17 10:55 38.15097 -1.39580 24943 ft 402 kts 208°
2026-04-17 10:55 38.12625 -1.41235 24512 ft 400 kts 208°
2026-04-17 10:55 38.10171 -1.42877 24124 ft 397 kts 208°
2026-04-17 10:56 38.07766 -1.44486 23735 ft 395 kts 208°
2026-04-17 10:56 38.05347 -1.46103 23343 ft 392 kts 208°
2026-04-17 10:56 38.02940 -1.47710 22953 ft 390 kts 208°
2026-04-17 10:56 38.00547 -1.49306 22565 ft 388 kts 208°
2026-04-17 10:57 37.98166 -1.50894 22175 ft 386 kts 208°
2026-04-17 10:57 37.95799 -1.52471 21789 ft 384 kts 208°
2026-04-17 10:57 37.93440 -1.54042 21400 ft 382 kts 208°
2026-04-17 10:57 37.91095 -1.55601 21015 ft 380 kts 208°
2026-04-17 10:58 37.88760 -1.57140 20592 ft 379 kts 208°
2026-04-17 10:58 37.86413 -1.58666 20206 ft 377 kts 208°
2026-04-17 10:58 37.84085 -1.60173 19818 ft 375 kts 208°
2026-04-17 10:58 37.81768 -1.61671 19437 ft 373 kts 208°
2026-04-17 10:59 37.79468 -1.63158 19052 ft 370 kts 207°
2026-04-17 10:59 37.77184 -1.64635 18689 ft 368 kts 207°
2026-04-17 10:59 37.74912 -1.66105 18322 ft 366 kts 207°
2026-04-17 10:59 37.72653 -1.67567 17954 ft 364 kts 207°
2026-04-17 11:00 37.70402 -1.69023 17584 ft 363 kts 207°
2026-04-17 11:00 37.68163 -1.70469 17213 ft 361 kts 207°
2026-04-17 11:00 37.65929 -1.71912 16850 ft 360 kts 207°
2026-04-17 11:00 37.63702 -1.73350 16484 ft 359 kts 207°
2026-04-17 11:01 37.61486 -1.74780 16116 ft 356 kts 207°
2026-04-17 11:01 37.59289 -1.76196 15752 ft 353 kts 207°
2026-04-17 11:01 37.57115 -1.77596 15388 ft 349 kts 207°
2026-04-17 11:01 37.54958 -1.78984 15029 ft 346 kts 207°
2026-04-17 11:02 37.52823 -1.80357 14674 ft 343 kts 207°
2026-04-17 11:02 37.50705 -1.81718 14331 ft 340 kts 207°
2026-04-17 11:02 37.48605 -1.83068 13964 ft 339 kts 207°
2026-04-17 11:02 37.46511 -1.84413 13618 ft 336 kts 207°
2026-04-17 11:03 37.44461 -1.85729 13280 ft 335 kts 207°
2026-04-17 11:03 37.42395 -1.87055 12942 ft 333 kts 207°
2026-04-17 11:03 37.40333 -1.88376 12579 ft 333 kts 207°
2026-04-17 11:03 37.38270 -1.89696 12238 ft 332 kts 207°
2026-04-17 11:04 37.36212 -1.91014 11886 ft 332 kts 207°
2026-04-17 11:04 37.34827 -1.91901 11666 ft 331 kts 207°
2026-04-17 11:04 37.32776 -1.93213 11315 ft 330 kts 207°
2026-04-17 11:04 37.30728 -1.94522 10969 ft 330 kts 207°
2026-04-17 11:05 37.28683 -1.95828 10633 ft 329 kts 207°
2026-04-17 11:05 37.26651 -1.97126 10325 ft 326 kts 207°
2026-04-17 11:05 37.24643 -1.98408 10181 ft 322 kts 207°
2026-04-17 11:05 37.22662 -1.99706 9882 ft 329 kts 208°
2026-04-17 11:06 37.20612 -2.01086 9500 ft 330 kts 208°
2026-04-17 11:06 37.18625 -2.02429 9141 ft 327 kts 208°
2026-04-17 11:06 37.16606 -2.03791 8750 ft 323 kts 207°
2026-04-17 11:06 37.14668 -2.05092 8331 ft 317 kts 207°
2026-04-17 11:07 37.12740 -2.06383 7867 ft 312 kts 207°
2026-04-17 11:07 37.10842 -2.07651 7435 ft 307 kts 207°
2026-04-17 11:07 37.08926 -2.08865 6957 ft 302 kts 199°
2026-04-17 11:07 37.06913 -2.09245 6516 ft 296 kts 174°
2026-04-17 11:08 37.04951 -2.08531 6165 ft 287 kts 154°
2026-04-17 11:08 37.03211 -2.07440 5779 ft 280 kts 151°
2026-04-17 11:08 37.01507 -2.06318 5366 ft 274 kts 151°
2026-04-17 11:08 36.99835 -2.05207 4954 ft 269 kts 151°
2026-04-17 11:09 36.98193 -2.04135 4602 ft 262 kts 156°
2026-04-17 11:09 36.96434 -2.03860 4336 ft 259 kts 192°
2026-04-17 11:09 36.94851 -2.04839 4156 ft 251 kts 213°
2026-04-17 11:10 36.92075 -2.07004 4130 ft 228 kts 218°
2026-04-17 11:10 36.91241 -2.08654 4108 ft 230 kts 256°
2026-04-17 11:10 36.90937 -2.10637 3844 ft 233 kts 255°
2026-04-17 11:10 36.90443 -2.12530 3589 ft 224 kts 251°
2026-04-17 11:11 36.89972 -2.14341 3388 ft 214 kts 252°
2026-04-17 11:11 36.89542 -2.16084 3199 ft 206 kts 252°
2026-04-17 11:11 36.89126 -2.17778 2939 ft 202 kts 252°
2026-04-17 11:11 36.88719 -2.19428 2680 ft 197 kts 252°
2026-04-17 11:12 36.88321 -2.21042 2426 ft 192 kts 252°
2026-04-17 11:12 36.87934 -2.22616 2182 ft 188 kts 252°
2026-04-17 11:12 36.87552 -2.24161 1926 ft 185 kts 251°
2026-04-17 11:12 36.87186 -2.25653 1683 ft 174 kts 251°
2026-04-17 11:13 36.86849 -2.27022 1464 ft 157 kts 252°
2026-04-17 11:13 36.86542 -2.28267 1262 ft 147 kts 251°
2026-04-17 11:13 36.86246 -2.29465 1072 ft 146 kts 252°
2026-04-17 11:13 36.85949 -2.30681 880 ft 148 kts 252°
2026-04-17 11:14 36.85642 -2.31934 689 ft 150 kts 252°
2026-04-17 11:14 36.85340 -2.33160 479 ft 149 kts 252°
2026-04-17 11:14 36.85038 -2.34388 280 ft 148 kts 252°
2026-04-17 11:14 36.84736 -2.35628 67 ft 149 kts 252°
2026-04-17 11:15 36.84457 -2.36756 60 ft 120 kts 253°
2026-04-17 11:15 36.84256 -2.37578 62 ft 78 kts 253°
2026-04-17 11:15 36.84199 -2.37986 57 ft 28 kts 277°
2026-04-17 11:15 36.84221 -2.38148 59 ft 10 kts 279°
2026-04-17 11:16 36.84252 -2.38197 58 ft 6 kts 341°
2026-04-17 11:16 36.84280 -2.38179 58 ft 5 kts 57°
2026-04-17 11:16 36.84291 -2.38141 64 ft 5 kts 72°
2026-04-17 11:16 36.84301 -2.38102 58 ft 5 kts 73°
2026-04-17 11:17 36.84312 -2.38056 65 ft 7 kts 73°
2026-04-17 11:17 36.84330 -2.37983 65 ft 11 kts 73°
2026-04-17 11:17 36.84355 -2.37879 61 ft 14 kts 73°
2026-04-17 11:17 36.84384 -2.37767 63 ft 13 kts 72°
2026-04-17 11:18 36.84411 -2.37659 58 ft 13 kts 73°
2026-04-17 11:18 36.84435 -2.37553 58 ft 13 kts 72°
2026-04-17 11:18 36.84461 -2.37451 63 ft 12 kts 72°
2026-04-17 11:18 36.84510 -2.37380 64 ft 12 kts 357°
2026-04-17 11:19 36.84568 -2.37320 60 ft 12 kts 68°
2026-04-17 11:19 36.84613 -2.37269 63 ft 9 kts 349°
2026-04-17 11:19 36.84657 -2.37280 69 ft 2 kts 17°
2026-04-17 11:19 36.84657 -2.37264 69 ft 2 kts 90°
2026-04-17 11:20 36.84655 -2.37256 69 ft 0 kts 114°